Weather History for KJMR - March, 2014

Change the Weather History Date:

Sunday, March 16, 2014

  Actual Average Record
Temperature  
Mean Temperature 12 °F -  
Max Temperature 23 °F 38 °F 73 °F (2012)
Min Temperature 1 °F 15 °F -14 °F (1997)
Degree Days  
Heating Degree Days 53    
Moisture  
Dew Point 1 °F    
Average Humidity 53    
Maximum Humidity 72    
Minimum Humidity 39    
Precipitation  
Precipitation 0.00 in - - ()
Sea Level Pressure  
Sea Level Pressure 30.35 in    
Wind  
Wind Speed 3 mph (SSE)    
Max Wind Speed 10 mph    
Max Gust Speed -    
Visibility 10 miles    
Events      
Averages and records for this station are not official NWS values.
T = Trace of Precipitation, MM = Missing Value Source: NWS Daily Summary

Daily Weather History Graph

Daily Weather History Graph

Search for Another Location

Airport or City:

Trip Planner

Search our weather history database for the weather conditions in past years. The results will help you decide how hot, cold, wet, or windy it might be!

Date:

Astronomy

Mar. 16, 2014 Rise Set
Actual Time 7:23 AM CDT 7:20 PM CDT
Civil Twilight 6:54 AM CDT 7:50 PM CDT
Nautical Twilight 6:19 AM CDT 8:24 PM CDT
Astronomical Twilight 5:43 AM CDT 9:00 PM CDT
Moon 7:41 PM CDT (3/16) 7:06 AM CDT (3/16)
Length of Visible Light 12h 56m
Length of Day
11h 56m
Full, 100% of the Moon is Illuminated
Mar 16
Full
Mar 16
Full
Mar 23
Last Quarter
Mar 30
New
Apr 7
First Quarter

Hourly Weather History & Observations

Time (CDT) Temp. Windchill Dew Point Humidity Pressure Visibility Wind Dir Wind Speed Gust Speed Precip Events Conditions
12:11 AM 14.0 °F 8.2 °F -2.2 °F 49% 30.46 in 10.0 mi NNE 3.5 mph - N/A   Clear
12:31 AM 14.0 °F - -2.2 °F 49% 30.46 in 10.0 mi Calm Calm - N/A   Clear
12:51 AM 14.0 °F - -2.2 °F 49% 30.47 in 10.0 mi Calm Calm - N/A   Clear
1:11 AM 12.2 °F 6.1 °F -2.2 °F 53% 30.47 in 10.0 mi NE 3.5 mph - N/A   Clear
1:31 AM 12.2 °F 4.3 °F -2.2 °F 53% 30.48 in 10.0 mi NE 4.6 mph - N/A   Clear
1:51 AM 12.2 °F - -4.0 °F 48% 30.49 in 10.0 mi Calm Calm - N/A   Clear
2:11 AM 12.2 °F - -2.2 °F 53% 30.50 in 10.0 mi Calm Calm - N/A   Clear
2:31 AM 10.4 °F - -2.2 °F 57% 30.49 in 10.0 mi Calm Calm - N/A   Clear
2:51 AM 10.4 °F - -4.0 °F 52% 30.50 in 10.0 mi Calm Calm - N/A   Clear
3:11 AM 10.4 °F - -4.0 °F 52% 30.49 in 10.0 mi Calm Calm - N/A   Clear
3:31 AM 10.4 °F - -4.0 °F 52% 30.49 in 10.0 mi Calm Calm - N/A   Clear
3:51 AM 8.6 °F - -4.0 °F 57% 30.49 in 10.0 mi Calm Calm - N/A   Clear
4:11 AM 8.6 °F - -4.0 °F 57% 30.50 in 10.0 mi Calm Calm - N/A   Clear
4:31 AM 6.8 °F - -4.0 °F 61% 30.50 in 10.0 mi Calm Calm - N/A   Clear
4:51 AM 6.8 °F - -4.0 °F 61% 30.50 in 10.0 mi Calm Calm - N/A   Clear
5:11 AM 6.8 °F - -4.0 °F 61% 30.49 in 10.0 mi Calm Calm - N/A   Clear
5:31 AM 6.8 °F - -4.0 °F 61% 30.49 in 10.0 mi Calm Calm - N/A   Clear
5:51 AM 6.8 °F - -4.0 °F 61% 30.49 in 10.0 mi Calm Calm - N/A   Clear
6:11 AM 6.8 °F - -4.0 °F 61% 30.48 in 10.0 mi Calm Calm - N/A   Clear
6:31 AM 5.0 °F - -5.8 °F 61% 30.48 in 10.0 mi Calm Calm - N/A   Clear
6:51 AM 5.0 °F - -4.0 °F 66% 30.49 in 10.0 mi Calm Calm - N/A   Clear
7:11 AM 3.2 °F - -5.8 °F 66% 30.48 in 10.0 mi Calm Calm - N/A   Clear
7:31 AM 1.4 °F - -5.8 °F 72% 30.49 in 10.0 mi Calm Calm - N/A   Clear
7:51 AM 3.2 °F - -4.0 °F 72% 30.49 in 10.0 mi Calm Calm - N/A   Clear
8:11 AM 5.0 °F - -2.2 °F 72% 30.50 in 10.0 mi Calm Calm - N/A   Clear
8:31 AM 6.8 °F - -2.2 °F 67% 30.50 in 10.0 mi Calm Calm - N/A   Clear
8:51 AM 10.4 °F - -0.4 °F 62% 30.50 in 10.0 mi Calm Calm - N/A   Clear
9:11 AM 12.2 °F - -0.4 °F 57% 30.50 in 10.0 mi Calm Calm - N/A   Clear
9:31 AM 12.2 °F - -0.4 °F 57% 30.49 in 10.0 mi Calm Calm - N/A   Clear
9:51 AM 14.0 °F 6.5 °F -0.4 °F 53% 30.49 in 10.0 mi South 4.6 mph - N/A   Clear
10:11 AM 14.0 °F 8.2 °F -0.4 °F 53% 30.48 in 10.0 mi SSE 3.5 mph - N/A   Clear
10:31 AM 14.0 °F 5.1 °F -0.4 °F 53% 30.48 in 10.0 mi South 5.8 mph - N/A   Clear
10:51 AM 17.6 °F 9.3 °F 1.4 °F 49% 30.47 in 10.0 mi South 5.8 mph - N/A   Clear
11:11 AM 17.6 °F 8.2 °F 1.4 °F 49% 30.44 in 10.0 mi ESE 6.9 mph - N/A   Clear
11:31 AM 17.6 °F 10.7 °F 1.4 °F 49% 30.44 in 10.0 mi ESE 4.6 mph - N/A   Clear
11:51 AM 17.6 °F 8.2 °F 1.4 °F 49% 30.44 in 10.0 mi ESE 6.9 mph - N/A   Clear
12:11 PM 19.4 °F 10.4 °F 3.2 °F 49% 30.43 in 10.0 mi ESE 6.9 mph - N/A   Clear
12:31 PM 19.4 °F 11.5 °F 1.4 °F 46% 30.42 in 10.0 mi SSE 5.8 mph - N/A   Clear
12:51 PM 19.4 °F 10.4 °F 3.2 °F 49% 30.40 in 10.0 mi ESE 6.9 mph - N/A   Clear
1:11 PM 19.4 °F 9.5 °F 3.2 °F 49% 30.38 in 10.0 mi SE 8.1 mph - N/A   Clear
1:31 PM 19.4 °F 9.5 °F 1.4 °F 46% 30.38 in 10.0 mi South 8.1 mph - N/A   Clear
1:51 PM 21.2 °F 14.9 °F 3.2 °F 46% 30.37 in 10.0 mi ESE 4.6 mph - N/A   Clear
2:11 PM 21.2 °F 10.1 °F 3.2 °F 46% 30.36 in 10.0 mi SSW 10.4 mph - N/A   Clear
2:31 PM 21.2 °F 12.6 °F 3.2 °F 46% 30.34 in 10.0 mi South 6.9 mph - N/A   Clear
2:51 PM 21.2 °F 13.6 °F 3.2 °F 46% 30.32 in 10.0 mi South 5.8 mph - N/A   Clear
3:11 PM 21.2 °F 14.9 °F 1.4 °F 42% 30.31 in 10.0 mi South 4.6 mph - N/A   Clear
3:31 PM 21.2 °F 13.6 °F 1.4 °F 42% 30.31 in 10.0 mi South 5.8 mph - N/A   Clear
3:51 PM 21.2 °F 16.4 °F -0.4 °F 39% 30.31 in 10.0 mi SSW 3.5 mph - N/A   Clear
4:11 PM 21.2 °F 12.6 °F 1.4 °F 42% 30.30 in 10.0 mi South 6.9 mph - N/A   Clear
4:31 PM 21.2 °F 14.9 °F 1.4 °F 42% 30.28 in 10.0 mi South 4.6 mph - N/A   Clear
4:51 PM 23.0 °F 15.8 °F 1.4 °F 39% 30.27 in 10.0 mi SSE 5.8 mph - N/A   Clear
5:11 PM 23.0 °F 17.0 °F 1.4 °F 39% 30.25 in 10.0 mi South 4.6 mph - N/A   Clear
5:31 PM 21.2 °F 14.9 °F 1.4 °F 42% 30.23 in 10.0 mi South 4.6 mph - N/A   Clear
5:51 PM 21.2 °F 12.6 °F 1.4 °F 42% 30.21 in 10.0 mi South 6.9 mph - N/A   Clear
6:11 PM 21.2 °F 12.6 °F 3.2 °F 46% 30.21 in 10.0 mi South 6.9 mph - N/A   Clear
6:31 PM 21.2 °F 12.6 °F 3.2 °F 46% 30.20 in 10.0 mi South 6.9 mph - N/A   Clear
6:51 PM 21.2 °F 16.4 °F 3.2 °F 46% 30.18 in 10.0 mi SSE 3.5 mph - N/A   Clear
7:11 PM 21.2 °F 13.6 °F 3.2 °F 46% 30.17 in 10.0 mi SSE 5.8 mph - N/A   Scattered Clouds
7:31 PM 21.2 °F 13.6 °F 3.2 °F 46% 30.15 in 10.0 mi SSE 5.8 mph - N/A   Scattered Clouds
7:51 PM 21.2 °F 13.6 °F 5.0 °F 50% 30.14 in 10.0 mi SSE 5.8 mph - N/A   Mostly Cloudy
8:11 PM 21.2 °F 13.6 °F 5.0 °F 50% 30.13 in 10.0 mi SSE 5.8 mph - N/A   Overcast
8:31 PM 19.4 °F 10.4 °F 5.0 °F 54% 30.10 in 10.0 mi SE 6.9 mph - N/A   Mostly Cloudy
8:51 PM 19.4 °F 10.4 °F 5.0 °F 54% 30.10 in 10.0 mi SSE 6.9 mph - N/A   Mostly Cloudy
9:11 PM 19.4 °F 11.5 °F 5.0 °F 54% 30.08 in 10.0 mi SSE 5.8 mph - N/A   Scattered Clouds
9:31 PM 19.4 °F 12.8 °F 5.0 °F 54% 30.06 in 10.0 mi SSE 4.6 mph - N/A   Clear
9:51 PM 19.4 °F 12.8 °F 5.0 °F 54% 30.05 in 10.0 mi SSE 4.6 mph - N/A   Mostly Cloudy
10:11 PM 19.4 °F 10.4 °F 8.6 °F 63% 30.04 in 10.0 mi South 6.9 mph - N/A   Mostly Cloudy
10:31 PM 19.4 °F 11.5 °F 8.6 °F 63% 30.02 in 10.0 mi South 5.8 mph - N/A   Overcast
10:51 PM 19.4 °F 10.4 °F 8.6 °F 63% 30.02 in 10.0 mi South 6.9 mph - N/A   Overcast
11:11 PM 21.2 °F 10.1 °F 8.6 °F 58% 30.01 in 10.0 mi South 10.4 mph - N/A   Overcast
11:31 PM 21.2 °F 10.1 °F 10.4 °F 63% 30.00 in 10.0 mi South 10.4 mph - N/A   Overcast
11:51 PM 21.2 °F 10.9 °F 10.4 °F 63% 29.98 in 10.0 mi South 9.2 mph - N/A   Overcast